Flag for Germany Weather past 2 weeks in Lahr, Baden-Württemberg, Germany

Now
40 °F

Passing clouds.


Feels Like: 40 °F
Forecast: 37 / 65 °F
Wind: 1 mph from East

Location: Lahr


UV Index: 3 (Moderate)

Visibility: 28 mi


Pressure: 29.95 "Hg

Humidity: 90%

Dew point: 37 °F

Location of LahrLocation

Historic Weather in Lahr

°F

Lahr temperature yesterday

Maximum temperature yesterday: 51 °F (at 5:00 PM)
Minimum temperature yesterday: 42 °F (at 11:00 PM)
Average temperature yesterday: 47 °F

Past Weeks' High & Low Weather Summary

 TemperatureHumidityPressure
High73 °F (Apr 7, 6:00 PM)99% (Apr 5, 10:00 PM)30.39 "Hg (Apr 5, 10:00 PM)
Low31 °F (Apr 17, 6:00 AM)28% (Apr 17, 3:00 PM)29.66 "Hg (Apr 4, 3:00 AM)
Average53 °F67%30.09 "Hg
* Reported Apr 4 2:00 AM — Apr 19 2:00 AM, Lahr, Weather by CustomWeather, © 2014

Note: Actual official high and low records may vary slightly from our data, if they occured in-between our weather recording intervals... More about our weather records

Advertising

Historic Weather Conditions — Data for Previous 24 hours

 ConditionsComfort  
Time TempWeatherWind HumidityBarometerVisibility
2:00 AM
Apr 19
40 °FPassing clouds.1 mph90%29.95 "Hg28 mi
1:00 AM41 °FPassing clouds.3 mph91%29.96 "Hg15 mi
12:00 AM42 °FRain. Overcast.3 mph91%29.99 "Hg9 mi
11:00 PM
Apr 18
42 °FPassing clouds.2 mph89%29.97 "Hg13 mi
10:00 PM44 °FOvercast.3 mph87%29.97 "Hg13 mi
9:00 PM45 °FOvercast.2 mph87%29.96 "Hg37 mi
8:00 PM44 °FPartly sunny.2 mph88%29.94 "Hg40 mi
7:00 PM47 °FPartly sunny.2 mph76%29.93 "Hg34 mi
6:00 PM45 °FThunderstorms. Partly sunny.3 mph84%29.92 "Hg25 mi
5:00 PM51 °FOvercast.1 mph61%29.91 "Hg25 mi
4:00 PM51 °FOvercast.1 mph63%29.92 "Hg25 mi
3:00 PM48 °FOvercast.2 mph75%29.93 "Hg15 mi
2:00 PM47 °FOvercast.5 mph82%29.94 "Hg22 mi
1:00 PM47 °FLight rain. Overcast.6 mph82%29.93 "Hg17 mi
12:00 PM49 °FOvercast.9 mph71%29.91 "Hg22 mi
11:00 AM50 °FOvercast.2 mph78%29.90 "Hg22 mi
10:00 AM49 °FOvercast.3 mph80%29.90 "Hg28 mi
9:00 AM49 °FLight rain. Overcast.5 mph78%29.89 "Hg28 mi
8:00 AM49 °FLight rain. Overcast.3 mph73%29.90 "Hg19 mi
7:00 AM48 °FLight rain. Overcast.3 mph74%29.89 "Hg31 mi
6:00 AM49 °FLight rain. Overcast.5 mph59%29.90 "Hg31 mi
5:00 AM48 °FOvercast.3 mph62%29.91 "Hg22 mi
4:00 AM47 °FOvercast.2 mph64%29.94 "Hg19 mi
3:00 AM45 °FOvercast.2 mph68%29.95 "Hg25 mi
Weather by CustomWeather, © 2014

See weather overview